Location: Rounton
(54.4000°N, 1.3500°W)
Time: 17:30:25
(UTC+00:00)

Tiros 1 - Pass Details

Date: 06 December 2021
Orbit: 629 x 664 km, 48.4° (Epoch: 19 January)

Event Time Altitude Azimuth Distance (km) Brightness Sun altitude
Rises 19:37:07 0° 245° (WSW) 2,924 11.3 -32.7°
Reaches altitude 10° 19:39:32 10° 237° (WSW) 2,021 10.2 -33.1°
Enters shadow 19:40:49 18° 229° (SW) 1,584 9.5 -33.2°
